Location: Goodsell Observatory
(44.4617°N, 93.1522°W)
Time: 06:34:11
(UTC-06:00)

Daily predictions for brighter satellites

Satellite Brightness Start Highest point End
(mag) Time Altitude Azimuth Time Altitude Azimuth Time Altitude Azimuth
Cosmos 2322 Rocket 2.4 18:12:58 10° NNW 18:18:36 80° WSW 18:24:13 10° SSE
Meteor 1-28 Rocket 3.3 18:15:55 10° NNE 18:19:42 55° E 18:23:26 10° S
USA 215 4.1 18:15:14 10° NE 18:21:22 45° NNW 18:27:29 10° W
Tiangong 2 3.0 18:19:04 10° W 18:21:42 25° SSW 18:24:19 10° SE
Genesis I 4.5 18:20:52 10° NNW 18:24:09 24° NE 18:27:24 10° E
Meteor 1-20 Rocket 4.3 18:18:48 10° S 18:24:36 71° E 18:30:26 10° NNE
Cosmos 2151 Rocket 3.8 18:20:48 10° S 18:25:11 53° E 18:29:36 10° NNE
SJ-6B 3.4 18:21:33 10° SE 18:25:13 36° ENE 18:28:50 10° N
Okean 1 Rocket 4.3 18:22:56 10° SE 18:26:19 21° E 18:29:43 10° NE
TSX-5 3.9 18:25:24 10° S 18:28:18 34° ESE 18:31:17 10° NE
FENGYUN 3A 4.3 18:24:23 10° SE 18:29:13 35° ENE 18:34:05 10° N
Cosmos 1745 Rocket 4.3 18:25:42 10° SSW 18:32:01 79° W 18:38:19 10° N
deb Kosmos-1763 4.4 18:29:38 10° SSW 18:33:26 73° WNW 18:37:14 10° NNE
Gbstr 26 Del rocket 4.0 18:30:54 10° S 18:34:01 24° SE 18:36:52 11° E
Cosmos 2322 3.9 18:29:16 10° NNW 18:34:51 51° ENE 18:40:23 10° SE
Cosmos 1238 Rocket 2.9 18:33:55 10° NNE 18:36:39 30° ENE 18:39:18 10° SE
Cosmos 1386 Rocket 4.5 18:31:34 10° S 18:37:40 89° E 18:43:43 10° N
NOAA 12 4.1 18:34:54 10° SSE 18:40:12 77° ENE 18:45:33 10° N
SKYMED 2 4.1 18:39:10 10° N 18:43:29 64° WNW 18:47:46 10° SSW
Cosmos 1025 Rocket 4.2 18:40:33 10° NNE 18:43:59 22° ENE 18:47:25 10° ESE
Meteor 1-13 Rocket 4.2 18:38:46 10° N 18:44:15 58° ENE 18:49:48 10° SSE
GEOS 3 Rocket 4.4 18:41:02 10° NE 18:45:40 31° ESE 18:50:20 10° S
COSMOS 2428 3.3 18:44:49 10° NNW 18:50:06 37° NE 18:55:21 10° ESE
Okean 1-7 Rocket 4.3 18:46:13 10° N 18:50:20 33° ENE 18:54:24 10° SE
METEOR-M 4.2 18:45:47 10° SSE 18:51:08 88° WSW 18:56:31 10° NNW
H-2A R/B 3.5 18:48:32 10° SE 18:51:45 29° ENE 18:55:02 10° N
Cosmos 1536 3.6 18:48:23 10° SSE 18:51:50 28° E 18:55:17 10° NNE
Meteor 2-4 Rocket 4.0 18:47:56 10° N 18:53:15 43° ENE 18:58:23 10° SE
Cosmos 2237 Rocket 3.8 18:49:58 10° N 18:53:39 17° NE 18:55:53 14° ENE
Okean 1 3.9 18:50:41 10° NNW 18:54:43 62° W 18:58:43 10° S
Cosmos 1812 4.4 18:51:18 10° NNW 18:54:53 37° W 18:58:27 10° SSW
Cosmos 1633 2.5 18:52:31 10° S 18:56:10 63° E 18:59:50 10° NNE
Cosmos 1023 Rocket 4.5 18:52:06 10° S 18:57:04 56° ESE 19:02:06 10° NNE
Cosmos 1536 Rocket 3.9 18:54:25 10° NNW 18:58:53 72° W 19:03:20 10° S
Cosmos 1741 Rocket 4.4 18:59:29 10° S 19:04:19 39° ESE 19:09:10 10° NE
Cosmos 1818 3.9 19:02:05 10° SW 19:07:30 68° NW 19:12:59 10° NNE
Cosmos 407 Rocket 4.4 19:03:09 10° SW 19:08:16 52° WNW 19:13:30 10° NNE
Cosmos 2360 Rocket 2.3 19:03:45 10° NNW 19:09:26 80° WSW 19:15:05 10° SSE
Cosmos 2219 Rocket 3.0 19:06:04 10° N 19:11:03 32° NE 19:13:35 22° E
Cosmos 2219 3.6 19:07:16 10° S 19:12:35 40° ESE 19:17:55 10° NE
Cosmos 676 Rocket 4.4 19:07:41 10° SSW 19:12:51 67° WNW 19:18:04 10° NNE
Cosmos 1570 Rocket 3.9 19:12:53 10° NNW 19:18:07 69° ENE 19:23:20 10° SSE
Meteor 1-11 Rocket 3.8 19:16:33 10° S 19:22:21 87° E 19:28:19 10° N
BREEZE-M DEB (TANK) 3.3 19:20:35 10° SSW 19:23:46 29° SSE 19:23:46 29° SSE
Cosmos 1602 4.3 19:21:45 10° SSW 19:25:35 60° W 19:29:27 10° N
SL-16 R/B 4.0 19:23:54 10° N 19:26:59 15° NE 19:27:20 15° NE
Resurs 01 Rocket 1.5 19:23:00 10° SSE 19:27:25 89° E 19:31:51 10° NNW
Cosmos 1140 Rocket 3.5 19:22:29 10° SSW 19:27:37 80° WNW 19:32:48 10° NNE
Cosmos 1300 Rocket 4.0 19:24:32 10° SSW 19:28:55 65° W 19:33:21 10° N
Abrixas rocket 3.8 19:27:36 10° SSW 19:29:39 22° SSE 19:29:39 22° SSE
BREEZE-M DEB (TANK) 3.3 19:28:04 10° WNW 19:31:11 84° NNE 19:35:01 26° ESE
ATLAS CENTAUR R/B 4.0 19:30:09 10° S 19:30:46 12° SSE 19:30:46 12° SSE
Spot 1 3.9 19:31:45 30° SE 19:33:34 58° ENE 19:37:40 10° N
Cosmos 614 Rocket 3.9 19:30:13 10° SSW 19:35:19 89° WNW 19:40:25 10° NNE
ALOS 2.9 19:31:49 10° S 19:36:25 58° W 19:41:02 10° NNW
Cosmos 468 Rocket 4.4 19:33:37 10° N 19:38:35 41° ENE 19:39:27 38° E
Cosmos 2327 Rocket 4.4 19:33:27 10° S 19:39:37 68° E 19:45:55 10° NNE
Spot 2 Rocket 3.7 19:37:21 10° S 19:42:23 72° WSW 19:47:29 10° NNW
Helios 1A 2.8 19:40:55 35° SSE 19:42:33 70° ENE 19:46:43 10° N
Cosmos 2333 Rocket 2.5 19:39:30 10° NNW 19:45:03 46° ENE 19:46:14 40° E
Resurs 1-3 3.8 19:40:47 10° S 19:45:09 71° WSW 19:49:33 10° NNW
Cosmos 2208 Rocket 4.2 19:39:41 10° NNW 19:45:10 78° WSW 19:50:30 10° SSE
USA 229 DEB 3.7 19:43:31 10° NW 19:50:41 81° NE 19:54:32 31° SE
USA 229 3.7 19:43:37 10° NW 19:50:47 80° NE 19:54:36 31° SE
Cosmos 1980 4.0 19:47:25 10° NNW 19:52:47 42° ENE 19:53:08 42° ENE
Helios 1B rocket 2.8 19:49:22 10° NNE 19:54:32 48° SSE 19:57:39 10° S
USA 186 4.0 19:56:01 16° NNW 19:56:01 16° NNW 19:56:44 10° NNW
Cosmos 1850 Rocket 4.2 19:49:46 10° SSW 19:55:04 73° WNW 20:00:26 10° NNE
Cosmos 1814 Rocket 4.4 19:51:15 10° N 19:55:48 43° NE 19:55:48 43° NE
Okean 2 3.3 19:53:40 10° N 19:57:51 88° E 19:58:14 73° SSE
Envisat 3.0 19:58:41 55° ENE 19:58:43 55° ENE 20:03:41 10° N
Cosmos 2074 Rocket 4.0 19:52:49 10° S 19:59:04 81° W 20:05:25 10° N
SAR-Lupe-1 4.4 20:00:38 63° WSW 20:00:44 64° WSW 20:04:19 10° NNW
Genesis I 4.4 19:58:16 10° NW 20:01:58 39° WSW 20:03:08 31° SSW
Cosmos 2184 Rocket 4.1 19:55:48 10° S 20:02:07 80° W 20:08:25 10° N
NOSS 3-1 (A) 4.4 19:56:07 10° NNW 20:03:08 44° NE 20:04:57 39° ENE
ERS-1 Rocket 4.0 20:05:24 30° NNE 20:05:24 30° NNE 20:08:28 10° N
Cosmos 1892 Rocket 3.6 20:02:42 10° N 20:06:29 66° N 20:06:29 66° N
ATLAS 2AS CENTAUR R/B 4.3 20:01:35 10° NNW 20:08:02 25° NNE 20:10:18 22° NE
Meteor 1-5 Rocket 4.5 20:03:41 10° SSW 20:09:39 75° WNW 20:15:35 10° N
BREEZE-M DEB (TANK) 3.7 20:13:42 10° W 20:16:38 41° SSW 20:17:20 39° S
Nadezhda 3 Rocket 3.8 20:13:55 10° N 20:20:07 81° E 20:21:26 58° SSE
Gbstr 26 Del rocket 3.9 20:16:53 10° WSW 20:19:29 39° W 20:19:29 39° W
H-2A R/B 4.5 20:24:23 11° NNE 20:24:23 11° NNE 20:24:40 10° NNE
Cosmos 405 Rocket 3.8 20:17:23 10° NNW 20:20:17 43° NW 20:20:17 43° NW
NOSS 3-1 (C) 4.0 20:15:32 10° NNW 20:22:57 65° NE 20:24:22 56° E
GEOS 3 Rocket 4.3 20:20:50 24° NNE 20:23:51 52° NW 20:28:57 10° WSW
Cosmos 2341 Rocket 4.4 20:26:53 47° NE 20:26:53 47° NE 20:31:32 10° NNE
Cosmos 2154 Rocket 3.9 20:24:43 10° S 20:31:05 89° WNW 20:37:28 10° N
COSMOS 2428 4.0 20:29:11 10° NW 20:34:20 36° WSW 20:37:44 19° SSW
Cosmos 2237 Rocket 2.4 20:32:52 10° NNW 20:37:45 66° NNW 20:37:45 66° NNW
NOSS 0 Rocket 4.3 20:46:14 10° NNW 20:52:17 59° WSW 20:52:28 59° WSW
Cosmos 2219 Rocket 3.1 20:49:52 10° NW 20:55:07 43° WSW 20:55:22 43° WSW
SL-16 R/B 3.7 21:06:30 10° NNW 21:09:13 29° NNW 21:09:13 29° NNW
Cosmos 2333 Rocket 3.9 21:24:11 10° NW 21:28:17 28° W 21:28:17 28° W
ATLAS 2AS CENTAUR R/B 4.1 21:52:47 10° NNW 21:57:45 39° NNW 21:57:45 39° NNW
